| time (UTC) | temp C | wind direction | speed KPH | gust KPH | rain 1hr cm | rain 24hr cm | rain mn cm | humidity % | barometer mb |
| 20260504215058 | 27 | 251 | 4.8 | 11.3 | 0.00 | 0.00 | 0.00 | 36 | 1014.2 |
| 20260504214018 | 27 | 344 | 3.2 | 8.0 | 0.00 | 0.00 | 0.00 | 37 | 1014.2 |
| 20260504213018 | 27 | 246 | 4.8 | 12.9 | 0.00 | 0.00 | 0.00 | 37 | 1014.2 |
| 20260504212015 | 27 | 287 | 4.8 | 11.3 | 0.00 | 0.00 | 0.00 | 36 | 1014.2 |
| 20260504211016 | 28 | 235 | 6.4 | 12.9 | 0.00 | 0.00 | 0.00 | 36 | 1014.1 |
| 20260504210016 | 28 | 241 | 4.8 | 11.3 | 0.00 | 0.00 | 0.00 | 32 | 1014.2 |
| 20260504205016 | 28 | 250 | 3.2 | 8.0 | 0.00 | 0.00 | 0.00 | 34 | 1014.2 |
| 20260504204016 | 27 | 233 | 6.4 | 16.1 | 0.00 | 0.00 | 0.00 | 36 | 1014.3 |
| 20260504203018 | 28 | 196 | 4.8 | 12.9 | 0.00 | 0.00 | 0.00 | 28 | 1014.4 |
| 20260504202036 | 28 | 49 | 6.4 | 9.7 | 0.00 | 0.00 | 0.00 | 28 | 1014.6 |
| 20260504201017 | 28 | 112 | 6.4 | 14.5 | 0.00 | 0.00 | 0.00 | 29 | 1014.6 |
| 20260504200037 | 28 | 109 | 4.8 | 11.3 | 0.00 | 0.00 | 0.00 | 27 | 1014.7 |
| 20260504195037 | 28 | 52 | 6.4 | 12.9 | 0.00 | 0.00 | 0.00 | 28 | 1014.8 |
| 20260504194017 | 28 | 156 | 6.4 | 14.5 | 0.00 | 0.00 | 0.00 | 28 | 1015.0 |
| 20260504193057 | 28 | 139 | 8.0 | 19.3 | 0.00 | 0.00 | 0.00 | 28 | 1015.1 |
| 20260504192017 | 27 | 34 | 6.4 | 11.3 | 0.00 | 0.00 | 0.00 | 27 | 1015.3 |
| 20260504191018 | 28 | 76 | 4.8 | 11.3 | 0.00 | 0.00 | 0.00 | 27 | 1015.5 |
| 20260504190018 | 27 | 47 | 4.8 | 9.7 | 0.00 | 0.00 | 0.00 | 28 | 1015.6 |
| 20260504185018 | 27 | 133 | 8.0 | 14.5 | 0.00 | 0.00 | 0.00 | 28 | 1015.7 |
| 20260504184018 | 27 | 96 | 6.4 | 12.9 | 0.00 | 0.00 | 0.00 | 28 | 1015.9 |
| 20260504183018 | 27 | 93 | 4.8 | 9.7 | 0.00 | 0.00 | 0.00 | 31 | 1015.9 |
| 20260504182055 | 27 | 39 | 3.2 | 8.0 | 0.00 | 0.00 | 0.00 | 31 | 1016.2 |
| 20260504181016 | 27 | 106 | 8.0 | 12.9 | 0.00 | 0.00 | 0.00 | 32 | 1016.3 |
| 20260504180016 | 26 | 71 | 9.7 | 14.5 | 0.00 | 0.00 | 0.00 | 31 | 1016.4 |
| 20260504175016 | 26 | 91 | 9.7 | 20.9 | 0.00 | 0.00 | 0.00 | 32 | 1016.5 |
| 20260504174016 | 26 | 29 | 6.4 | 11.3 | 0.00 | 0.00 | 0.00 | 31 | 1016.7 |
| 20260504173016 | 26 | 127 | 6.4 | 12.9 | 0.00 | 0.00 | 0.00 | 34 | 1016.8 |
| 20260504172017 | 26 | 134 | 9.7 | 17.7 | 0.00 | 0.00 | 0.00 | 32 | 1016.9 |
| 20260504171017 | 26 | 76 | 6.4 | 14.5 | 0.00 | 0.00 | 0.00 | 34 | 1016.9 |
| 20260504151016 | 23 | 123 | 8.0 | 19.3 | 0.00 | 0.00 | 0.00 | 42 | 1018.1 |
| 20260504141017 | 22 | 98 | 12.9 | 20.9 | 0.00 | 0.00 | 0.00 | 46 | 1018.2 |
| 20260504081037 | 12 | 34 | 1.6 | 3.2 | 0.00 | 0.00 | 0.00 | 89 | 1017.0 |
| 20260504050017 | 16 | 74 | 1.6 | 3.2 | 0.00 | 0.00 | 0.00 | 74 | 1018.2 |
| 20260504045017 | 16 | 77 | 1.6 | 4.8 | 0.00 | 0.00 | 0.00 | 73 | 1018.3 |
| 20260504044037 | 16 | 66 | 1.6 | 6.4 | 0.00 | 0.00 | 0.00 | 73 | 1018.4 |
| 20260504043037 | 16 | 73 | 1.6 | 4.8 | 0.00 | 0.00 | 0.00 | 72 | 1018.5 |
| 20260504042038 | 16 | 66 | 1.6 | 4.8 | 0.00 | 0.00 | 0.00 | 71 | 1018.5 |
| 20260504041017 | 16 | 46 | 1.6 | 8.0 | 0.00 | 0.00 | 0.00 | 71 | 1018.5 |
| 20260504040017 | 16 | 340 | 1.6 | 4.8 | 0.00 | 0.00 | 0.00 | 70 | 1018.4 |
| 20260504035016 | 16 | 26 | 1.6 | 3.2 | 0.00 | 0.00 | 0.00 | 69 | 1018.4 |
| 20260504034016 | 17 | 84 | 1.6 | 3.2 | 0.00 | 0.00 | 0.00 | 69 | 1018.4 |
| 20260504033016 | 17 | 78 | 1.6 | 3.2 | 0.00 | 0.00 | 0.00 | 67 | 1018.4 |
| 20260504032036 | 17 | 43 | 1.6 | 8.0 | 0.00 | 0.00 | 0.00 | 68 | 1018.3 |
| 20260504031017 | 17 | 65 | 1.6 | 3.2 | 0.00 | 0.00 | 0.00 | 66 | 1018.0 |
| 20260504030016 | 17 | 308 | 1.6 | 3.2 | 0.00 | 0.00 | 0.00 | 63 | 1018.0 |
| 20260504025017 | 17 | 10 | 1.6 | 3.2 | 0.00 | 0.00 | 0.00 | 61 | 1018.0 |
| 20260504024037 | 17 | 337 | 1.6 | 6.4 | 0.00 | 0.00 | 0.00 | 61 | 1017.9 |
| 20260504023017 | 18 | 24 | 0.0 | 1.6 | 0.00 | 0.00 | 0.00 | 58 | 1017.7 |
| 20260504022023 | 18 | 71 | 1.6 | 1.6 | 0.00 | 0.00 | 0.00 | 56 | 1017.6 |
| 20260504021037 | 19 | 66 | 1.6 | 3.2 | 0.00 | 0.00 | 0.00 | 53 | 1017.7 |
| 20260504020018 | 19 | 37 | 3.2 | 4.8 | 0.00 | 0.00 | 0.00 | 51 | 1017.5 |
| 20260504015018 | 18 | 25 | 3.2 | 6.4 | 0.00 | 0.00 | 0.00 | 52 | 1017.3 |
| 20260504014018 | 18 | 23 | 1.6 | 4.8 | 0.00 | 0.00 | 0.00 | 57 | 1017.2 |
| 20260504013018 | 19 | 84 | 3.2 | 8.0 | 0.00 | 0.00 | 0.00 | 54 | 1016.9 |
| 20260504012016 | 19 | 307 | 1.6 | 3.2 | 0.00 | 0.00 | 0.00 | 49 | 1016.7 |
| 20260504011016 | 20 | 301 | 1.6 | 3.2 | 0.00 | 0.00 | 0.00 | 50 | 1016.5 |
| 20260504010016 | 20 | 336 | 1.6 | 4.8 | 0.00 | 0.00 | 0.00 | 47 | 1016.2 |
| 20260504005016 | 20 | 342 | 1.6 | 3.2 | 0.00 | 0.00 | 0.00 | 48 | 1016.1 |
| 20260504004016 | 20 | 1 | 0.0 | 3.2 | 0.00 | 0.00 | 0.00 | 48 | 1016.1 |
| 20260504003016 | 21 | 320 | 0.0 | 4.8 | 0.00 | 0.00 | 0.00 | 47 | 1016.0 |
| 20260504002016 | 21 | 300 | 1.6 | 3.2 | 0.00 | 0.00 | 0.00 | 44 | 1015.9 |
| 20260504001056 | 22 | 340 | 1.6 | 3.2 | 0.00 | 0.00 | 0.00 | 43 | 1015.8 |
| 20260504000016 | 22 | 317 | 1.6 | 4.8 | 0.00 | 0.00 | 0.00 | 41 | 1015.8 |
| 20260503235016 | 22 | 337 | 1.6 | 4.8 | 0.00 | 0.00 | 0.00 | 39 | 1015.8 |
| 20260503234017 | 23 | 13 | 3.2 | 9.7 | 0.00 | 0.00 | 0.00 | 38 | 1015.7 |
| 20260503233017 | 23 | 2 | 4.8 | 9.7 | 0.00 | 0.00 | 0.00 | 37 | 1015.8 |
| 20260503232017 | 24 | 4 | 6.4 | 11.3 | 0.00 | 0.00 | 0.00 | 35 | 1015.9 |
| 20260503231017 | 25 | 8 | 4.8 | 11.3 | 0.00 | 0.00 | 0.00 | 35 | 1015.9 |
| 20260503230018 | 25 | 15 | 4.8 | 8.0 | 0.00 | 0.00 | 0.00 | 34 | 1015.9 |
| 20260503225018 | 25 | 351 | 4.8 | 12.9 | 0.00 | 0.00 | 0.00 | 34 | 1015.7 |
| 20260503224018 | 25 | 24 | 3.2 | 6.4 | 0.00 | 0.00 | 0.00 | 33 | 1015.7 |
| 20260503223038 | 26 | 22 | 6.4 | 9.7 | 0.00 | 0.00 | 0.00 | 32 | 1015.6 |
| 20260503222019 | 26 | 326 | 3.2 | 8.0 | 0.00 | 0.00 | 0.00 | 30 | 1015.7 |
| 20260503221018 | 26 | 349 | 3.2 | 11.3 | 0.00 | 0.00 | 0.00 | 31 | 1015.7 |
| 20260503220018 | 26 | 357 | 3.2 | 8.0 | 0.00 | 0.00 | 0.00 | 31 | 1015.9 |